Time,TemperatureF,DewpointF,PressureIn,WindDirection,WindDirectionDegrees,WindSpeedMPH,WindSpeedGustMPH,Humidity,HourlyPrecipIn,Conditions,Clouds,dailyrainin,SoftwareType,DateUTC
2013-08-01 00:02:00,81.9,77.0,29.91,East,84,6.0,14.0,86,0.00,,,0.00,weatherlink.com 1.10,2013-08-01 04:02:00,
2013-08-01 00:17:00,81.8,78.0,29.91,NE,42,6.0,15.0,87,0.00,,,0.00,weatherlink.com 1.10,2013-08-01 04:17:00,
2013-08-01 00:32:00,81.8,77.0,29.90,ENE,67,7.0,14.0,86,0.00,,,0.00,weatherlink.com 1.10,2013-08-01 04:32:00,
2013-08-01 00:47:00,81.8,77.0,29.90,NE,56,7.0,14.0,86,0.00,,,0.00,weatherlink.com 1.10,2013-08-01 04:47:00,
2013-08-01 01:02:00,81.8,77.0,29.89,ENE,78,7.0,13.0,86,0.00,,,0.00,weatherlink.com 1.10,2013-08-01 05:02:00,
2013-08-01 01:17:00,81.8,77.0,29.89,ENE,78,4.0,14.0,86,0.00,,,0.00,weatherlink.com 1.10,2013-08-01 05:17:00,
2013-08-01 01:32:00,81.7,77.0,29.89,ENE,66,4.0,12.0,86,0.00,,,0.00,weatherlink.com 1.10,2013-08-01 05:32:00,
2013-08-01 01:47:00,81.6,77.0,29.89,ENE,77,7.0,11.0,86,0.00,,,0.00,weatherlink.com 1.10,2013-08-01 05:47:00,
2013-08-01 02:02:00,81.5,77.0,29.88,ESE,103,4.0,12.0,87,0.00,,,0.00,weatherlink.com 1.10,2013-08-01 06:02:00,
2013-08-01 02:18:00,81.4,77.0,29.88,ESE,120,3.0,12.0,86,0.00,,,0.00,weatherlink.com 1.10,2013-08-01 06:18:00,
2013-08-01 02:32:00,81.3,77.0,29.88,ESE,109,3.0,11.0,86,0.00,,,0.00,weatherlink.com 1.10,2013-08-01 06:32:00,
2013-08-01 02:48:00,81.3,77.0,29.87,East,84,8.0,10.0,87,0.00,,,0.00,weatherlink.com 1.10,2013-08-01 06:48:00,
2013-08-01 03:03:00,81.3,77.0,29.87,ESE,121,3.0,10.0,87,0.00,,,0.00,weatherlink.com 1.10,2013-08-01 07:03:00,
2013-08-01 03:18:00,81.2,77.0,29.87,ENE,67,5.0,10.0,87,0.00,,,0.00,weatherlink.com 1.10,2013-08-01 07:18:00,
2013-08-01 03:33:00,81.3,78.0,29.87,ESE,108,3.0,10.0,88,0.00,,,0.00,weatherlink.com 1.10,2013-08-01 07:33:00,
2013-08-01 03:48:00,81.3,77.0,29.87,East,100,7.0,14.0,87,0.00,,,0.00,weatherlink.com 1.10,2013-08-01 07:48:00,
2013-08-01 04:03:00,81.2,77.0,29.88,East,88,10.0,14.0,86,0.00,,,0.00,weatherlink.com 1.10,2013-08-01 08:03:00,
2013-08-01 04:18:00,81.2,77.0,29.88,ESE,103,4.0,11.0,86,0.00,,,0.00,weatherlink.com 1.10,2013-08-01 08:18:00,
2013-08-01 04:48:00,81.2,76.0,29.88,East,96,1.0,12.0,84,0.00,,,0.00,weatherlink.com 1.10,2013-08-01 08:48:00,
2013-08-01 05:18:00,81.3,77.0,29.87,ENE,76,5.0,14.0,85,0.00,,,0.00,weatherlink.com 1.10,2013-08-01 09:18:00,
2013-08-01 05:33:00,81.3,77.0,29.88,East,80,11.0,11.0,85,0.00,,,0.00,weatherlink.com 1.10,2013-08-01 09:33:00,
2013-08-01 06:03:00,81.3,76.0,29.88,ESE,116,9.0,12.0,84,0.00,,,0.00,weatherlink.com 1.10,2013-08-01 10:03:00,
2013-08-01 06:33:00,81.4,76.0,29.89,ENE,73,7.0,15.0,83,0.00,,,0.00,weatherlink.com 1.10,2013-08-01 10:33:00,
2013-08-01 06:48:00,81.6,76.0,29.90,ESE,110,2.0,12.0,84,0.00,,,0.00,weatherlink.com 1.10,2013-08-01 10:48:00,
2013-08-01 07:48:00,82.9,77.0,29.91,East,82,11.0,15.0,83,0.00,,,0.00,weatherlink.com 1.10,2013-08-01 11:48:00,
2013-08-01 08:18:00,84.0,78.0,29.91,ESE,110,5.0,19.0,81,0.00,,,0.00,weatherlink.com 1.10,2013-08-01 12:18:00,
2013-08-01 08:33:00,84.5,77.0,29.92,ENE,65,5.0,16.0,79,0.00,,,0.00,weatherlink.com 1.10,2013-08-01 12:33:00,
2013-08-01 08:48:00,84.6,78.0,29.92,ESE,113,10.0,15.0,80,0.00,,,0.00,weatherlink.com 1.10,2013-08-01 12:48:00,
2013-08-01 09:18:00,85.6,78.0,29.93,East,101,3.0,17.0,77,0.00,,,0.00,weatherlink.com 1.10,2013-08-01 13:18:00,
2013-08-01 10:03:00,86.8,78.0,29.93,ESE,103,20.0,20.0,75,0.00,,,0.00,weatherlink.com 1.10,2013-08-01 14:03:00,
2013-08-01 10:48:00,86.8,78.0,29.93,ESE,120,4.0,18.0,74,0.00,,,0.00,weatherlink.com 1.10,2013-08-01 14:48:00,
2013-08-01 11:18:00,87.1,78.0,29.92,ENE,72,15.0,22.0,75,0.00,,,0.00,weatherlink.com 1.10,2013-08-01 15:18:00,
2013-08-01 11:48:00,86.9,78.0,29.92,ENE,67,10.0,22.0,74,0.00,,,0.00,weatherlink.com 1.10,2013-08-01 15:48:00,
2013-08-01 12:03:00,87.2,78.0,29.92,East,84,13.0,19.0,74,0.00,,,0.00,weatherlink.com 1.10,2013-08-01 16:03:00,
2013-08-01 12:18:00,87.3,78.0,29.91,ENE,78,13.0,17.0,74,0.00,,,0.00,weatherlink.com 1.10,2013-08-01 16:18:00,
2013-08-01 13:04:00,87.7,77.0,29.90,ENE,57,7.0,23.0,70,0.00,,,0.00,weatherlink.com 1.10,2013-08-01 17:04:00,
2013-08-01 13:19:00,88.0,78.0,29.90,ESE,121,13.0,18.0,71,0.00,,,0.00,weatherlink.com 1.10,2013-08-01 17:19:00,
2013-08-01 13:34:00,87.6,77.0,29.89,SE,138,6.0,19.0,70,0.00,,,0.00,weatherlink.com 1.10,2013-08-01 17:34:00,
2013-08-01 14:04:00,88.0,78.0,29.88,ENE,74,9.0,17.0,71,0.00,,,0.00,weatherlink.com 1.10,2013-08-01 18:04:00,
2013-08-01 14:19:00,87.3,78.0,29.87,East,92,5.0,19.0,73,0.00,,,0.00,weatherlink.com 1.10,2013-08-01 18:19:00,
2013-08-01 14:34:00,87.9,79.0,29.86,ENE,69,10.0,15.0,74,0.00,,,0.00,weatherlink.com 1.10,2013-08-01 18:34:00,
2013-08-01 14:49:00,87.9,79.0,29.86,ENE,78,5.0,17.0,74,0.00,,,0.00,weatherlink.com 1.10,2013-08-01 18:49:00,
2013-08-01 15:34:00,86.4,78.0,29.85,ENE,78,9.0,18.0,77,0.00,,,0.00,weatherlink.com 1.10,2013-08-01 19:34:00,
2013-08-01 16:19:00,86.1,78.0,29.83,ENE,57,9.0,22.0,76,0.00,,,0.00,weatherlink.com 1.10,2013-08-01 20:19:00,
2013-08-01 16:34:00,85.9,78.0,29.83,NE,50,7.0,18.0,76,0.00,,,0.00,weatherlink.com 1.10,2013-08-01 20:34:00,
2013-08-01 16:49:00,85.7,78.0,29.83,SE,125,8.0,19.0,78,0.00,,,0.00,weatherlink.com 1.10,2013-08-01 20:49:00,
2013-08-01 17:04:00,85.4,77.0,29.83,ENE,69,10.0,25.0,77,0.00,,,0.00,weatherlink.com 1.10,2013-08-01 21:04:00,
2013-08-01 17:34:00,85.2,78.0,29.83,NE,53,10.0,19.0,79,0.00,,,0.00,weatherlink.com 1.10,2013-08-01 21:34:00,
2013-08-01 17:49:00,85.0,78.0,29.84,ENE,71,8.0,18.0,80,0.00,,,0.00,weatherlink.com 1.10,2013-08-01 21:49:00,
2013-08-01 18:49:00,83.3,76.0,29.85,ENE,69,4.0,17.0,78,0.00,,,0.00,weatherlink.com 1.10,2013-08-01 22:49:00,
2013-08-01 19:04:00,83.0,76.0,29.85,East,90,9.0,17.0,79,0.00,,,0.00,weatherlink.com 1.10,2013-08-01 23:04:00,
2013-08-01 19:19:00,82.8,76.0,29.86,East,93,6.0,18.0,80,0.00,,,0.00,weatherlink.com 1.10,2013-08-01 23:19:00,
2013-08-01 19:34:00,82.7,77.0,29.86,ESE,116,9.0,14.0,83,0.00,,,0.00,weatherlink.com 1.10,2013-08-01 23:34:00,
2013-08-01 19:49:00,82.5,77.0,29.87,NE,55,5.0,16.0,84,0.00,,,0.00,weatherlink.com 1.10,2013-08-01 23:49:00,
2013-08-01 20:04:00,82.5,78.0,29.88,ENE,71,9.0,17.0,85,0.00,,,0.00,weatherlink.com 1.10,2013-08-02 00:04:00,
2013-08-01 20:19:00,82.4,78.0,29.89,East,90,5.0,16.0,85,0.00,,,0.00,weatherlink.com 1.10,2013-08-02 00:19:00,
2013-08-01 20:34:00,82.3,77.0,29.89,East,90,8.0,15.0,85,0.00,,,0.00,weatherlink.com 1.10,2013-08-02 00:34:00,
2013-08-01 20:49:00,82.3,78.0,29.90,ESE,103,4.0,13.0,86,0.00,,,0.00,weatherlink.com 1.10,2013-08-02 00:49:00,
2013-08-01 21:19:00,82.4,78.0,29.91,ENE,74,5.0,14.0,86,0.00,,,0.00,weatherlink.com 1.10,2013-08-02 01:19:00,
2013-08-01 21:34:00,82.4,78.0,29.91,ENE,65,12.0,16.0,85,0.00,,,0.00,weatherlink.com 1.10,2013-08-02 01:34:00,
2013-08-01 22:04:00,82.2,77.0,29.92,NNE,25,2.0,15.0,85,0.00,,,0.00,weatherlink.com 1.10,2013-08-02 02:04:00,
2013-08-01 22:19:00,82.2,77.0,29.92,East,89,13.0,16.0,84,0.00,,,0.00,weatherlink.com 1.10,2013-08-02 02:19:00,
2013-08-01 22:34:00,82.3,77.0,29.93,ENE,64,9.0,17.0,83,0.00,,,0.00,weatherlink.com 1.10,2013-08-02 02:34:00,
2013-08-01 22:49:00,82.3,77.0,29.94,East,82,10.0,15.0,83,0.00,,,0.00,weatherlink.com 1.10,2013-08-02 02:49:00,
2013-08-01 23:04:00,82.2,77.0,29.93,East,99,5.0,15.0,84,0.00,,,0.00,weatherlink.com 1.10,2013-08-02 03:04:00,
2013-08-01 23:49:00,82.0,77.0,29.94,East,80,6.0,14.0,84,0.00,,,0.00,weatherlink.com 1.10,2013-08-02 03:49:00,